FW6618 Weather Reports


time (UTC)temp
C
wind
direction
speed
KPH
gust
KPH
rain 1hr
cm
rain 24hr
cm
rain mn
cm
humidity
%
barometer
mb
20260901020042 18 0 0.0 0.0 0.00 0.00 0.00 94 1020.3
20260901015523 18 0 0.0 0.0 0.00 0.00 0.00 94 1020.3
20260901015024 18 0 0.0 0.0 0.00 0.00 0.00 94 1020.3
20260901014552 18 0 0.0 0.0 0.00 0.00 0.00 94 1020.2
20260901014024 18 0 0.0 0.0 0.00 0.00 0.00 94 1020.3
20260901013520 18 0 0.0 0.0 0.00 0.00 0.00 94 1020.2
20260901013047 18 0 0.0 0.0 0.00 0.00 0.00 94 1020.2
20260901012518 18 0 0.0 0.0 0.00 0.00 0.00 94 1020.3
20260901012018 18 0 0.0 0.0 0.00 0.00 0.00 94 1020.2
20260901011541 18 0 0.0 0.0 0.00 0.00 0.00 93 1020.2
20260901011023 18 0 0.0 0.0 0.00 0.00 0.00 93 1020.2
20260901010523 18 0 0.0 0.0 0.00 0.00 0.00 93 1020.1
20260901010045 18 0 0.0 0.0 0.00 0.00 0.00 93 1020.2
20260901005518 18 0 0.0 0.0 0.00 0.00 0.00 93 1020.2
20260901005025 18 0 0.0 0.0 0.00 0.00 0.00 93 1020.1
20260901004541 18 0 0.0 0.0 0.00 0.00 0.00 93 1020.0
20260901004022 18 0 0.0 0.0 0.00 0.00 0.00 93 1020.1
20260901003525 18 0 0.0 0.0 0.00 0.00 0.00 93 1020.1
20260901003052 18 0 0.0 0.0 0.00 0.00 0.00 93 1020.2
20260901002519 18 0 0.0 0.0 0.00 0.00 0.00 93 1020.1
20260901002020 18 0 0.0 0.0 0.00 0.00 0.00 93 1020.1
20260901001554 18 0 0.0 0.0 0.00 0.00 0.00 93 1020.0
20260901001019 18 0 0.0 0.0 0.00 0.00 0.00 93 1020.0
20260901000522 18 0 0.0 0.0 0.00 0.00 0.00 92 1020.0
20260901000039 18 0 0.0 0.0 0.00 0.00 0.00 92 1020.2
20260831235530 18 0 0.0 0.0 0.00 0.03 0.00 91 1020.0
20260831235024 19 0 0.0 0.0 0.00 0.03 0.00 92 1020.1
20260831234543 19 0 0.0 0.0 0.00 0.03 0.00 92 1020.2
20260831234023 19 0 0.0 0.0 0.00 0.03 0.00 92 1020.0
20260831233520 19 0 0.0 0.0 0.00 0.03 0.00 92 1020.1
20260831233042 19 0 0.0 0.0 0.00 0.03 0.00 91 1020.1
20260831232518 19 0 0.0 0.0 0.00 0.03 0.00 91 1020.1
20260831232018 19 0 0.0 0.0 0.00 0.03 0.00 91 1020.1
20260831231544 20 0 0.0 0.0 0.00 0.03 0.00 91 1020.2
20260831231026 20 0 0.0 0.0 0.00 0.03 0.00 91 1020.3
20260831230523 20 0 0.0 0.0 0.00 0.03 0.00 91 1020.3
20260831230049 20 0 0.0 0.0 0.00 0.03 0.00 90 1020.4
20260831225521 20 0 0.0 0.0 0.00 0.10 0.00 91 1020.4
20260831225027 20 0 0.0 0.0 0.00 0.10 0.00 90 1020.5
20260831224541 20 0 0.0 0.0 0.00 0.10 0.00 89 1020.6
20260831224023 20 0 0.0 0.0 0.00 0.10 0.00 89 1020.5
20260831223526 20 0 0.0 0.0 0.00 0.10 0.00 89 1020.5
20260831223044 20 0 0.0 0.0 0.00 0.10 0.00 89 1020.5
20260831222523 20 0 0.0 0.0 0.00 0.10 0.00 89 1020.5
20260831222031 20 0 0.0 0.0 0.00 0.10 0.00 88 1020.6
20260831221555 20 0 0.0 0.0 0.00 0.10 0.00 87 1020.4
20260831221023 20 0 0.0 0.0 0.00 0.10 0.00 88 1020.5
20260831220521 21 0 0.0 0.0 0.00 0.10 0.00 88 1020.6
20260831220049 21 0 0.0 1.6 0.00 0.10 0.00 87 1020.5
20260831215524 21 0 0.0 1.6 0.00 0.10 0.00 87 1020.5
20260831215025 21 0 0.0 0.0 0.00 0.10 0.00 86 1020.4
20260831214554 21 0 0.0 0.0 0.00 0.10 0.00 86 1020.3
20260831214026 21 0 0.0 1.6 0.00 0.10 0.00 85 1020.3
20260831213528 21 0 0.0 1.6 0.00 0.10 0.00 85 1020.4
20260831213051 21 296 0.0 1.6 0.00 0.10 0.00 83 1020.5
20260831212525 21 0 0.0 1.6 0.00 0.10 0.00 83 1020.4
20260831212028 21 0 0.0 1.6 0.00 0.10 0.00 83 1020.4
20260831211542 21 0 0.0 1.6 0.00 0.10 0.00 83 1020.4
20260831211024 21 0 0.0 1.6 0.00 0.10 0.00 82 1020.5
20260831210524 21 0 0.0 1.6 0.00 0.10 0.00 81 1020.5
20260831210047 21 296 0.0 1.6 0.00 0.10 0.00 82 1020.4
20260831205523 21 0 0.0 1.6 0.00 0.10 0.00 81 1020.5
20260831205027 22 296 0.0 1.6 0.00 0.10 0.00 80 1020.5
20260831204553 22 296 0.0 1.6 0.00 0.10 0.00 81 1020.6
20260831204026 22 294 0.0 1.6 0.00 0.10 0.00 78 1020.5
20260831203522 22 295 0.0 1.6 0.00 0.10 0.00 79 1020.5
20260831203057 23 295 0.0 4.8 0.00 0.10 0.00 80 1020.5
20260831202525 23 295 0.0 4.8 0.00 0.10 0.00 77 1020.5
20260831202027 23 270 1.6 4.8 0.00 0.10 0.00 72 1020.5
20260831201541 23 276 1.6 4.8 0.00 0.10 0.00 68 1020.5
20260831201026 23 283 1.6 4.8 0.00 0.10 0.00 73 1020.5
20260831200526 23 320 1.6 4.8 0.00 0.10 0.00 67 1020.6
20260831200044 23 265 0.0 1.6 0.00 0.10 0.00 74 1020.5
20260831195524 24 131 0.0 4.8 0.00 0.10 0.00 72 1020.6
20260831195025 24 131 0.0 6.4 0.00 0.10 0.00 70 1020.6
20260831194543 25 326 3.2 8.0 0.00 0.10 0.00 69 1020.7
20260831194024 25 148 3.2 9.7 0.00 0.10 0.00 63 1020.8
20260831193521 25 23 1.6 9.7 0.00 0.10 0.00 63 1020.7
20260831193042 25 166 1.6 6.4 0.00 0.10 0.00 69 1020.8
20260831192523 25 285 1.6 6.4 0.00 0.10 0.00 66 1020.8
20260831192019 25 319 3.2 6.4 0.00 0.10 0.00 66 1020.9
20260831191550 25 220 1.6 8.0 0.00 0.10 0.00 65 1020.9
20260831191019 25 174 3.2 8.0 0.00 0.10 0.00 64 1020.9
20260831190520 25 157 1.6 6.4 0.00 0.10 0.00 65 1020.9
20260831190042 25 290 1.6 4.8 0.00 0.10 0.00 66 1021.0
20260831185525 25 212 0.0 4.8 0.00 0.10 0.00 71 1021.0
20260831185021 24 266 1.6 6.4 0.00 0.10 0.00 65 1021.0
20260831184543 24 110 3.2 6.4 0.00 0.10 0.00 67 1021.2
20260831184028 24 158 1.6 6.4 0.00 0.10 0.00 71 1021.3
20260831183522 24 236 1.6 3.2 0.00 0.10 0.00 74 1021.4
20260831183042 23 153 0.0 1.6 0.00 0.10 0.00 75 1021.4
20260831182520 23 284 0.0 3.2 0.00 0.10 0.00 75 1021.5
20260831182018 23 246 0.0 3.2 0.00 0.10 0.00 75 1021.6
20260831181540 23 246 0.0 3.2 0.00 0.10 0.00 71 1021.7
20260831181019 24 0 0.0 3.2 0.00 0.10 0.00 66 1021.6
20260831180524 24 310 1.6 4.8 0.00 0.10 0.00 67 1021.8
20260831180038 24 173 1.6 4.8 0.00 0.10 0.00 69 1021.7
20260831175520 24 250 1.6 4.8 0.00 0.10 0.00 73 1021.6
20260831175024 24 188 0.0 4.8 0.00 0.10 0.00 72 1021.7
20260831174542 23 204 1.6 4.8 0.00 0.10 0.00 73 1021.7
20260831174023 23 0 0.0 4.8 0.00 0.10 0.00 74 1021.7
20260831173518 23 146 1.6 4.8 0.00 0.10 0.00 72 1021.7
20260831173052 23 203 0.0 3.2 0.00 0.10 0.00 72 1021.8
20260831172519 23 255 1.6 3.2 0.00 0.10 0.00 74 1021.8
20260831172023 23 119 1.6 6.4 0.00 0.10 0.00 73 1021.9
20260831171541 23 0 1.6 6.4 0.00 0.10 0.00 74 1021.9
20260831171024 23 91 1.6 6.4 0.00 0.10 0.00 74 1021.9
20260831170524 23 56 1.6 6.4 0.00 0.10 0.00 73 1021.9
20260831170043 23 57 1.6 4.8 0.00 0.10 0.00 73 1022.0
20260831165519 23 347 0.0 4.8 0.00 0.10 0.00 74 1022.1
20260831165020 23 56 3.2 4.8 0.00 0.10 0.00 73 1022.1
20260831164556 22 296 1.6 4.8 0.00 0.10 0.00 75 1022.4
20260831164019 22 194 1.6 4.8 0.00 0.10 0.00 77 1022.3
20260831163520 22 118 1.6 6.4 0.00 0.10 0.00 76 1022.5
20260831163043 22 212 1.6 8.0 0.00 0.10 0.00 77 1022.6
20260831162521 22 282 0.0 8.0 0.00 0.10 0.00 79 1022.6
20260831162019 22 298 1.6 8.0 0.00 0.10 0.00 73 1022.6
20260831161544 22 206 1.6 6.4 0.00 0.10 0.00 74 1022.5
20260831161023 22 132 1.6 6.4 0.00 0.10 0.00 78 1022.6
20260831160525 22 175 3.2 6.4 0.00 0.10 0.00 78 1022.5
20260831160042 22 128 1.6 4.8 0.00 0.10 0.00 80 1022.7
20260831155520 22 113 1.6 4.8 0.00 0.10 0.00 82 1022.8
20260831155018 21 168 1.6 4.8 0.00 0.10 0.00 84 1022.8
20260831154600 21 235 1.6 3.2 0.00 0.10 0.00 85 1022.7
20260831154018 21 169 1.6 3.2 0.00 0.10 0.00 84 1022.8
20260831153525 20 101 0.0 3.2 0.00 0.10 0.00 84 1022.8
20260831153043 20 288 1.6 3.2 0.00 0.10 0.00 84 1022.8
20260831152521 20 211 0.0 3.2 0.00 0.10 0.00 87 1022.8
20260831152024 20 281 0.0 3.2 0.00 0.10 0.00 87 1022.8
20260831151541 19 310 1.6 4.8 0.00 0.10 0.00 87 1023.0
20260831151019 19 0 0.0 4.8 0.00 0.10 0.00 89 1022.9
20260831150521 19 194 0.0 4.8 0.00 0.10 0.00 90 1022.8
20260831150041 18 268 0.0 3.2 0.00 0.10 0.00 92 1022.8
20260831145517 18 235 1.6 3.2 0.00 0.10 0.00 93 1022.9
20260831145022 18 247 0.0 3.2 0.00 0.10 0.00 93 1022.9
20260831144542 18 303 0.0 1.6 0.00 0.10 0.00 93 1023.0
20260831144021 18 248 0.0 1.6 0.00 0.10 0.00 94 1023.1
20260831143521 17 0 0.0 1.6 0.00 0.10 0.00 95 1023.2
20260831143042 17 146 0.0 3.2 0.00 0.10 0.00 96 1023.2
20260831142520 17 340 0.0 3.2 0.00 0.10 0.00 95 1023.1
20260831142018 17 297 0.0 3.2 0.00 0.10 0.00 95 1023.1
20260831141540 17 191 1.6 3.2 0.00 0.10 0.00 96 1023.1
20260831141019 16 293 0.0 3.2 0.00 0.10 0.00 96 1023.2
20260831140519 16 282 0.0 1.6 0.00 0.10 0.00 96 1023.1
20260831140039 16 22 0.0 3.2 0.00 0.10 0.00 97 1023.0
20260831135525 16 105 0.0 4.8 0.00 0.10 0.00 97 1023.0
20260831135025 16 218 0.0 4.8 0.00 0.10 0.00 97 1023.1
20260831134544 16 243 0.0 1.6 0.00 0.10 0.00 97 1023.1
20260831134020 16 0 0.0 4.8 0.00 0.10 0.00 98 1023.2
20260831133518 16 0 1.6 4.8 0.00 0.10 0.00 98 1023.0
20260831133041 16 0 0.0 4.8 0.00 0.10 0.00 98 1023.1
20260831132524 16 190 1.6 4.8 0.00 0.10 0.00 98 1023.1
20260831132018 16 84 1.6 3.2 0.00 0.10 0.00 98 1023.1
20260831131538 16 225 0.0 1.6 0.00 0.10 0.00 98 1023.2
20260831131104 15 0 0.0 1.6 0.00 0.10 0.00 98 1023.1
20260831130521 15 164 0.0 1.6 0.00 0.10 0.00 98 1023.2
20260831130046 15 116 0.0 1.6 0.00 0.10 0.00 98 1023.1
20260831125523 15 0 0.0 1.6 0.00 0.10 0.00 98 1023.1
20260831125026 15 0 0.0 1.6 0.00 0.10 0.00 98 1023.1
20260831124552 15 117 0.0 1.6 0.00 0.10 0.00 98 1023.0
20260831124023 15 0 0.0 1.6 0.00 0.10 0.00 98 1023.0
20260831123522 15 0 0.0 0.0 0.00 0.10 0.00 98 1023.0
20260831123046 15 0 0.0 0.0 0.00 0.10 0.00 98 1023.1
20260831122528 15 0 0.0 0.0 0.00 0.10 0.00 98 1022.9
20260831122024 15 0 0.0 0.0 0.00 0.10 0.00 98 1022.9
20260831121542 15 0 0.0 0.0 0.00 0.10 0.00 98 1023.0
20260831121024 15 0 0.0 0.0 0.00 0.10 0.00 98 1023.0
20260831120528 15 0 0.0 0.0 0.00 0.10 0.00 98 1023.1
20260831120047 15 0 0.0 0.0 0.00 0.10 0.00 98 1023.1
20260831115522 15 0 0.0 0.0 0.00 0.10 0.00 98 1023.0
20260831115024 15 0 0.0 0.0 0.00 0.10 0.00 98 1023.0
20260831114549 15 0 0.0 0.0 0.00 0.10 0.00 98 1023.0
20260831114025 15 0 0.0 0.0 0.00 0.10 0.00 98 1023.0
20260831113521 15 0 0.0 0.0 0.00 0.10 0.00 98 1022.9
20260831113046 15 0 0.0 0.0 0.00 0.10 0.00 98 1022.8
20260831112518 14 0 0.0 0.0 0.00 0.10 0.00 98 1022.6
20260831112023 14 0 0.0 0.0 0.00 0.10 0.00 98 1022.6
20260831111541 14 0 0.0 0.0 0.00 0.10 0.00 98 1022.6
20260831111024 14 0 0.0 0.0 0.00 0.10 0.00 98 1022.6
20260831110523 14 0 0.0 0.0 0.00 0.10 0.00 98 1022.4
20260831110045 14 0 0.0 0.0 0.00 0.10 0.00 98 1022.3
20260831105522 13 0 0.0 0.0 0.00 0.10 0.00 98 1022.3
20260831105023 13 0 0.0 0.0 0.00 0.10 0.00 98 1022.3
20260831104554 13 0 0.0 0.0 0.00 0.10 0.00 98 1022.3
20260831104027 13 0 0.0 0.0 0.00 0.10 0.00 98 1022.3
20260831103522 13 0 0.0 0.0 0.00 0.10 0.00 98 1022.2
20260831103043 13 0 0.0 0.0 0.00 0.10 0.00 97 1022.3
20260831102524 13 0 0.0 0.0 0.00 0.10 0.00 97 1022.3
20260831102023 13 0 0.0 0.0 0.00 0.10 0.00 97 1022.3
20260831101545 13 0 0.0 0.0 0.00 0.10 0.00 97 1022.2
20260831101021 13 0 0.0 0.0 0.00 0.10 0.00 97 1022.2
20260831100519 13 0 0.0 0.0 0.00 0.10 0.00 97 1022.3
20260831100045 13 0 0.0 0.0 0.00 0.10 0.00 97 1022.3
20260831095521 13 0 0.0 0.0 0.00 0.10 0.00 97 1022.2
20260831095019 13 0 0.0 0.0 0.00 0.10 0.00 97 1022.2
20260831094547 14 0 0.0 0.0 0.00 0.10 0.00 97 1022.1
20260831094023 14 0 0.0 0.0 0.00 0.10 0.00 98 1022.1
20260831093528 14 0 0.0 0.0 0.00 0.10 0.00 98 1022.1
20260831093050 14 0 0.0 0.0 0.00 0.10 0.00 98 1022.1
20260831092522 14 0 0.0 0.0 0.00 0.10 0.00 98 1022.0
20260831092020 14 0 0.0 0.0 0.00 0.10 0.00 98 1022.0
20260831091540 14 0 0.0 0.0 0.00 0.10 0.00 98 1022.1
20260831091026 14 0 0.0 0.0 0.00 0.10 0.00 98 1022.1
20260831090519 14 0 0.0 0.0 0.00 0.10 0.00 97 1022.0
20260831090046 14 0 0.0 0.0 0.00 0.10 0.00 97 1022.1
20260831085525 14 0 0.0 0.0 0.00 0.10 0.00 97 1022.1
20260831085024 14 0 0.0 0.0 0.00 0.10 0.00 97 1021.9
20260831084546 14 0 0.0 0.0 0.00 0.10 0.00 97 1021.9
20260831084026 14 0 0.0 0.0 0.00 0.10 0.00 97 1021.9
20260831083523 14 0 0.0 0.0 0.00 0.10 0.00 97 1021.7
20260831083050 15 0 0.0 0.0 0.00 0.10 0.00 97 1021.7
20260831082523 15 0 0.0 0.0 0.00 0.10 0.00 97 1021.6
20260831082020 15 0 0.0 0.0 0.00 0.10 0.00 97 1021.7
20260831081545 15 0 0.0 0.0 0.00 0.10 0.00 97 1021.5
20260831081026 15 0 0.0 0.0 0.00 0.10 0.00 98 1021.6
20260831080526 15 0 0.0 0.0 0.00 0.10 0.00 97 1021.7
20260831080046 15 0 0.0 0.0 0.00 0.10 0.00 97 1021.6
20260831075524 15 0 0.0 0.0 0.00 0.10 0.00 97 1021.6
20260831075023 15 0 0.0 0.0 0.00 0.10 0.00 97 1021.5
20260831074547 15 0 0.0 0.0 0.00 0.10 0.00 98 1021.6
20260831074027 15 0 0.0 0.0 0.00 0.10 0.00 98 1021.5
20260831073524 15 0 0.0 0.0 0.00 0.10 0.00 97 1021.3
20260831073054 15 0 0.0 0.0 0.00 0.10 0.00 98 1021.4
20260831072524 15 0 0.0 0.0 0.00 0.10 0.00 97 1021.3
20260831072020 15 0 0.0 0.0 0.00 0.10 0.00 97 1021.4
20260831071542 15 0 0.0 0.0 0.00 0.10 0.00 97 1021.4
20260831071025 15 0 0.0 0.0 0.00 0.10 0.00 97 1021.4
20260831070521 15 0 0.0 0.0 0.00 0.10 0.00 97 1021.4
20260831070052 15 0 0.0 0.0 0.00 0.10 0.00 97 1021.5
20260831065526 15 0 0.0 0.0 0.00 0.10 0.00 97 1021.5
20260831065025 15 0 0.0 0.0 0.00 0.10 0.00 97 1021.4
20260831064544 15 0 0.0 0.0 0.00 0.10 0.00 97 1021.5
20260831064021 16 0 0.0 0.0 0.00 0.10 0.00 97 1021.4
20260831063521 16 0 0.0 0.0 0.00 0.10 0.00 97 1021.4
20260831063042 16 0 0.0 0.0 0.00 0.10 0.00 97 1021.4
20260831062525 16 0 0.0 0.0 0.00 0.10 0.00 97 1021.4
20260831062025 16 0 0.0 0.0 0.00 0.10 0.00 97 1021.4
20260831061539 16 0 0.0 0.0 0.00 0.10 0.00 97 1021.3
20260831061025 16 0 0.0 0.0 0.00 0.10 0.00 97 1021.4
20260831060528 16 0 0.0 0.0 0.00 0.10 0.00 97 1021.3
20260831060047 16 0 0.0 0.0 0.00 0.10 0.00 97 1021.4
20260831055523 16 0 0.0 0.0 0.00 0.10 0.00 97 1021.5
20260831055025 16 0 0.0 0.0 0.00 0.10 0.00 97 1021.5
20260831054542 16 0 0.0 0.0 0.00 0.10 0.00 97 1021.4
20260831054023 16 0 0.0 0.0 0.00 0.10 0.00 97 1021.4
20260831053524 16 0 0.0 0.0 0.00 0.10 0.00 97 1021.4
20260831053041 16 0 0.0 0.0 0.00 0.10 0.00 97 1021.3
20260831052523 16 0 0.0 0.0 0.00 0.10 0.00 97 1021.4
20260831052027 16 0 0.0 0.0 0.00 0.10 0.00 97 1021.4
20260831051544 16 0 0.0 0.0 0.00 0.10 0.00 97 1021.3
20260831051023 16 0 0.0 0.0 0.00 0.10 0.00 97 1021.4
20260831050520 16 0 0.0 0.0 0.00 0.10 0.00 97 1021.3
20260831050058 16 0 0.0 0.0 0.00 0.10 0.00 97 1021.3
20260831045520 16 0 0.0 0.0 0.00 0.10 0.00 97 1021.4
20260831045023 16 0 0.0 0.0 0.00 0.10 0.00 97 1021.3
20260831044601 16 0 0.0 0.0 0.00 0.10 0.00 97 1021.4
20260831044025 16 335 0.0 0.0 0.00 0.10 0.00 97 1021.4
20260831043519 16 0 0.0 0.0 0.00 0.10 0.00 97 1021.3
20260831043041 16 0 0.0 0.0 0.00 0.10 0.00 97 1021.4
20260831042523 16 0 0.0 1.6 0.00 0.10 0.00 97 1021.4
20260831042023 16 0 0.0 1.6 0.00 0.10 0.00 97 1021.2
20260831041545 16 334 0.0 1.6 0.00 0.10 0.00 97 1021.2
20260831041023 16 0 0.0 0.0 0.00 0.10 0.00 97 1020.9
20260831040521 16 0 0.0 0.0 0.00 0.10 0.00 97 1021.1
20260831040049 16 0 0.0 0.0 0.00 0.10 0.00 97 1021.0
20260831035524 16 0 0.0 0.0 0.00 0.10 0.10 97 1020.9
20260831035024 16 0 0.0 0.0 0.00 0.10 0.10 97 1021.0
20260831034545 16 0 0.0 0.0 0.00 0.10 0.10 97 1021.0
20260831034103 16 0 0.0 0.0 0.00 0.10 0.10 97 1021.1
20260831033525 16 0 0.0 0.0 0.00 0.10 0.10 97 1021.1
20260831033042 16 0 0.0 0.0 0.00 0.10 0.10 97 1021.1
20260831032523 16 0 0.0 0.0 0.00 0.10 0.10 97 1021.3
20260831032019 16 0 0.0 1.6 0.00 0.10 0.10 97 1021.4
20260831031546 16 0 0.0 3.2 0.00 0.10 0.10 97 1021.4
20260831031024 16 334 0.0 3.2 0.00 0.10 0.10 97 1021.4
20260831030526 16 0 0.0 1.6 0.00 0.10 0.10 97 1021.2
20260831030055 16 77 0.0 1.6 0.00 0.10 0.10 97 1021.1
20260831025524 16 0 0.0 0.0 0.00 0.10 0.10 97 1021.0
20260831025024 16 0 0.0 0.0 0.00 0.10 0.10 97 1021.2
20260831024608 16 0 0.0 0.0 0.00 0.10 0.10 97 1021.4
20260831024024 16 0 0.0 0.0 0.00 0.10 0.10 97 1021.3
20260831023520 16 0 0.0 0.0 0.00 0.10 0.10 97 1021.2
20260831023040 16 0 0.0 0.0 0.00 0.10 0.10 97 1021.2
20260831022522 16 0 0.0 0.0 0.00 0.10 0.10 97 1021.0
20260831022019 17 0 0.0 0.0 0.00 0.10 0.10 97 1021.0
20260831021543 17 0 0.0 0.0 0.00 0.10 0.10 97 1020.9
20260831021025 17 0 0.0 0.0 0.00 0.10 0.10 97 1020.8
20260831020525 17 0 0.0 0.0 0.00 0.10 0.10 97 1020.8